This is the latest recevied weather packets stored in our database for station/object IU2EVW-13. If no packets are shown the sender has not sent any weather packets the latest 10 day(s).
| Time | Temp. | Humidity | Pressure | Rain* | Wind** | Luminosity | Snow |
|---|---|---|---|---|---|---|---|
| 1777537242 | 12.22° C | 69% | 1025.5 hPa | - | - | - | - |
| 1777536041 | 11.11° C | 70% | 1025.5 hPa | - | - | - | - |
| 1777534839 | 10.56° C | 72% | 1025.4 hPa | - | - | - | - |
| 1777533638 | 11.11° C | 71% | 1025.1 hPa | - | - | - | - |
| 1777532437 | 10.56° C | 70% | 1025 hPa | - | - | - | - |
| 1777531233 | 10° C | 73% | 1024.8 hPa | - | - | - | - |
| 1777530031 | 10° C | 75% | 1024.8 hPa | - | - | - | - |
| 1777528830 | 10° C | 77% | 1024.6 hPa | - | - | - | - |
| 1777527629 | 10° C | 79% | 1024.5 hPa | - | - | - | - |
| 1777526427 | 10° C | 80% | 1024.2 hPa | - | - | - | - |
| 1777525226 | 9.44° C | 82% | 1023.8 hPa | - | - | - | - |
| 1777524025 | 9.44° C | 83% | 1023.7 hPa | - | - | - | - |
| 1777522823 | 9.44° C | 85% | 1023.5 hPa | - | - | - | - |
| 1777521622 | 10° C | 85% | 1023.3 hPa | - | - | - | - |
| 1777520420 | 10° C | 85% | 1023.3 hPa | - | - | - | - |
| 1777519219 | 10° C | 85% | 1023.2 hPa | - | - | - | - |
| 1777518018 | 10° C | 84% | 1023.2 hPa | - | - | - | - |
| 1777516816 | 10.56° C | 84% | 1023.2 hPa | - | - | - | - |
| 1777515615 | 10.56° C | 83% | 1023.2 hPa | - | - | - | - |
| 1777514414 | 10.56° C | 83% | 1023.2 hPa | - | - | - | - |
| 1777513212 | 10.56° C | 84% | 1023.2 hPa | - | - | - | - |
| 1777512011 | 11.11° C | 83% | 1023.2 hPa | - | - | - | - |
| 1777510809 | 11.11° C | 83% | 1023.1 hPa | - | - | - | - |
| 1777509608 | 11.11° C | 81% | 1023.1 hPa | - | - | - | - |
| 1777508407 | 11.67° C | 79% | 1022.9 hPa | - | - | - | - |
* Rain since midnight (hover to see other rain measurements)
** Current wind speed in m/s (hover to see current wind gust speed)